Regional Weather Roundup
Issued by NWS Wilmington, NC

Home | Current Version | Previous Version | Text Only | Print | Product List | Glossary On
Versions: 1 2 3 4 5 6 7 8 9 10 11 12 13 14 15 16 17 18 19 20 21 22 23 24 25 26 27 28 29 30 31 32 33 34 35 36 37 38 39 40 41 42 43 44 45 46 47 48 49 50
000
ASUS42 KILM 020512
RWRILM
RWRILM
REGIONAL HOURLY WEATHER ROUNDUP
NATIONAL WEATHER SERVICE WILMINGTON NC
100 AM EDT THU APR 02 2015

NOTE: "FAIR" INDICATES FEW OR NO CLOUDS BELOW 12,000 FEET WITH NO
SIGNIFICANT WEATHER AND/OR OBSTRUCTIONS TO VISIBILITY.

...............WFO WILMINGTON COUNTY WARNING AREA...............

......COASTAL NC AND SC COUNTIES......

CITY           SKY/WX    TMP DP  RH WIND       PRES   REMARKS
WILMINGTON     CLEAR     53  41  63 E8        30.29S
N MYRTLE BEACH CLEAR     58  42  55 E13G20    30.28R
MYRTLE BEACH   CLEAR     57  45  62 E15G22    30.29S

......INLAND NC AND SC COUNTIES.......

CITY           SKY/WX    TMP DP  RH WIND       PRES   REMARKS
LUMBERTON      CLEAR     49  43  80 SE5       30.28R
ELIZABETHTOWN  CLEAR     49  42  78 CALM      30.28S
WHITEVILLE     CLEAR     52  44  73 E5        30.28R
FLORENCE       CLEAR     52  47  83 SE8       30.26R
DARLINGTON     CLEAR     52  45  76 SE9       30.28R

....................REST OF NORTH CAROLINA......................

.........EASTERN NC.........

CITY           SKY/WX    TMP DP  RH WIND       PRES   REMARKS
CAPE HATTERAS  CLEAR     37  29  72 E3        30.31F
JACKSONVILLE   CLEAR     45  34  65 E5        30.31S
MOREHEAD CITY  CLEAR     48  37  65 E5        30.31S
KENANSVILLE    CLEAR     45  37  76 CALM      30.30S
NEW BERN       CLEAR     48  37  65 SE5       30.32R
ELIZABETH CITY PTCLDY    40  33  76 S5        30.31S

.........CENTRAL NC.........

CITY           SKY/WX    TMP DP  RH WIND       PRES   REMARKS
RALEIGH DURHAM PTCLDY    50  30  46 SE8       30.26R
ROCKY MOUNT    CLEAR     47  37  68 VRB3      30.29S
ROANOKE RAPIDS NOT AVBL
FAYETTEVILLE   CLEAR     48  40  73 SE6       30.27R
HOFFMAN        CLEAR     51  40  68 SE6       30.30R

.........WESTERN NC.........

CITY           SKY/WX    TMP DP  RH WIND       PRES   REMARKS
CHARLOTTE      PTCLDY    58  36  43 SE13      30.22R
GREENSBORO     PTCLDY    52  32  46 S9        30.23R
HICKORY        NOT AVBL
BOONE          NOT AVBL
ASHEVILLE      NOT AVBL

.....................REST OF SOUTH CAROLINA.....................

.........EASTERN SC.........

CITY           SKY/WX    TMP DP  RH WIND       PRES   REMARKS
CHARLESTON     PTCLDY    59  52  77 E9        30.24S
BEAUFORT MCAS  CLEAR     61  57  87 E10       30.21S
HILTON HEAD    CLEAR     63  61  94 E8        30.22F

.........CENTRAL SC.........

CITY           SKY/WX    TMP DP  RH WIND       PRES   REMARKS
COLUMBIA       CLEAR     58  48  69 SE15      30.22R
ORANGEBURG     CLEAR     55  49  80 SE5       30.23S
SUMTER SHAW    CLEAR     53  47  79 E5        30.23R

.........WESTERN SC.........

CITY           SKY/WX    TMP DP  RH WIND       PRES   REMARKS
GREENVILLE     NOT AVBL
ROCK HILL      PTCLDY    57  41  55 S7        30.22R
ANDERSON       PTCLDY    59  43  55 E5        30.16S
CLEMSON        NOT AVBL
GREENWOOD      CLEAR     60  49  66 SE9       30.19R


...................COASTAL AND OFFSHORE REPORTS..................

................LOCAL PIERS AND NC RESERVE................


STATION/POSITION TIME  SKY/WX   TEMP    WIND        PRES    VSBY
                                AIR SEA DIR/SP/G
                 (UTC)          (F)     (DEG/KT/KT) (MB)    (MI)
JOHNY MRCER PIER 0400            56 59   80/ 16/ 18 1025.1S
NC RESRV MASNBRO NOT AVBL
OCEAN CREST PIER 0502            57 58   60/ 15/ 18 1024.5R
SPRINGMAID  PIER 0400            57 58   70/ 15/ 18 1024.9R


................COASTAL AND OFFSHORE BUOYS................


STATION/POSITION TIME  SKY/WX   TEMP    WIND        PRES    VSBY
                                AIR SEA DIR/SP/G
                 (UTC)          (F)     (DEG/KT/KT) (MB)    (MI)
DIMNDSHOAL 41025 NOT AVBL
CAPE LOOKOUT     0500            55      60/ 16/ 18 1025.9F
ONSLOW BAY 41036 NOT AVBL
5 WRITEBCH 41038 0400            57 56   90/ 16/ 19 1025.2F
MASONBORO  41110 NOT AVBL
WILM HARBR 41108 0411               58                N/A
WVE H/P(F/S)=  4/ 4 WND WVE H/P(F/S)=  3/ 4

27WRITEBCH 41037 0400            56 64   90/ 21/ 23 1026.7R
FRYING PAN 41013 0450            61 63   80/ 19/ 23 1025.3R
WVE H/P(F/S)=  6/ 6 WND WVE H/P(F/S)=  5/ 6 SWL H/P/D(F/S/D)=  2/ 90/11

SUNST NRSH 41024 0408            58     100/ 14/ 19   N/A
CAPRS NRSH 41029 NOT AVBL
EDISTO     41004 0450            65 68   80/ 19/ 21 1023.3R
WVE H/P(F/S)=  6/ 7 WND WVE H/P(F/S)=  7/ 7 SWL H/P/D(F/S/D)=  2/11



..........OFFSHORE BUOYS BEYOND 100 NM OFFSHORE...........
.....IN A TRIANGLE---HAT TO BERMUDA TO BAHAMAS TO HAT.....


STATION/POSITION TIME  SKY/WX   TEMP    WIND        PRES    VSBY
                                AIR SEA DIR/SP/G
                 (UTC)          (F)     (DEG/KT/KT) (MB)    (MI)
150E HAT   41001 NOT AVBL
W BERMUDA  41048 0450            65 69   10/ 17/ 21 1020.6R
WVE H/P(F/S)=  7/ 7 WND WVE H/P(F/S)=  7/ 7

ATLANTIC S 41049 0450            72 74  200/  4/  4 1019.9F
WVE H/P(F/S)=  5/10 WND WVE H/P(F/S)=  2/ 4 SWL H/P/D(F/S/D)=  5/320/10

E BAHAMAS  41046 0450            75 78   70/  8/ 10 1019.9F
WVE H/P(F/S)=  4/10 WND WVE H/P(F/S)=  2/ 4 SWL H/P/D(F/S/D)=  3/ 20/10

NE BAHAMAS 41047 0450            73 76  250/ 10/ 12 1021.1F
WVE H/P(F/S)=  3/ 6 WND WVE H/P(F/S)=  2/ 5 SWL H/P/D(F/S/D)=  3/310/ 6

120E CANVRL41010 0420            75 75  330/  6/  6 1021.0R

END



USA.gov is the U.S. government's official web portal to all federal, state and local government web resources and services.